User: anonymous   Login
Location: Oshawa
(43.9000°N, 78.8670°W)
Time: 22:50:09
(UTC-05:00)
Language:

CARTOSAT-1 - Orbit

View from above orbital plane
View from above orbital plane
View from above satellite
View from above satellite

Ground track
Ground track

The orbit data is extracted from the following two-line orbital elements,

1 28649U 05017A   16343.87429224 -.00002442  00000-0 -29123-3 0  9991
2 28649  97.8817  55.0593 0001240 351.6224   8.4994 14.83426257627762
Epoch (UTC): 08 December 2016 20:58:58
Eccentricity: 0.0001240
inclination: 97.8817°
perigee height: 617 km
apogee height: 619 km
right ascension of ascending node: 55.0593°
argument of perigee: 351.6224°
revolutions per day: 14.83426257
mean anomaly at epoch: 8.4994°
orbit number at epoch: 62776

The dashed part of the orbit path shows where the satellite is in the earth's shadow,  

DLR